TimeAKST,TemperatureF,Dew PointF,Humidity,Sea Level PressureIn,VisibilityMPH,Wind Direction,Wind SpeedMPH,Gust SpeedMPH,PrecipitationIn,Events,Conditions,WindDirDegrees,DateUTC
12:53 AM,-11.0,-15.0,83,29.84,10.0,Calm,Calm,-,N/A,,Scattered Clouds,0,2013-02-13 09:53:00
1:53 AM,-11.0,-16.1,78,29.84,10.0,Calm,Calm,-,N/A,,Scattered Clouds,0,2013-02-13 10:53:00
3:53 AM,-11.9,-17.0,78,29.83,10.0,Calm,Calm,-,N/A,,Scattered Clouds,0,2013-02-13 12:53:00
4:53 AM,-11.9,-18.0,74,29.83,10.0,Calm,Calm,-,N/A,,Scattered Clouds,0,2013-02-13 13:53:00
5:53 AM,-11.0,-16.1,78,29.83,10.0,Calm,Calm,-,N/A,,Mostly Cloudy,0,2013-02-13 14:53:00
6:53 AM,-9.9,-16.1,74,29.83,10.0,Calm,Calm,-,N/A,,Mostly Cloudy,0,2013-02-13 15:53:00
7:53 AM,-9.0,-14.1,79,29.82,10.0,Calm,Calm,-,N/A,,Mostly Cloudy,0,2013-02-13 16:53:00
8:53 AM,-9.9,-15.0,78,29.83,10.0,Calm,Calm,-,N/A,,Scattered Clouds,0,2013-02-13 17:53:00
9:53 AM,-9.9,-15.0,78,29.83,10.0,Calm,Calm,-,N/A,,Scattered Clouds,0,2013-02-13 18:53:00
10:53 AM,-9.9,-15.0,78,29.83,10.0,South,3.5,-,N/A,,Mostly Cloudy,170,2013-02-13 19:53:00
11:53 AM,-5.1,-9.0,83,29.84,10.0,Calm,Calm,-,N/A,,Mostly Cloudy,0,2013-02-13 20:53:00
12:53 PM,-2.9,-7.1,82,29.83,10.0,Calm,Calm,-,N/A,,Mostly Cloudy,0,2013-02-13 21:53:00
1:53 PM,1.9,-2.0,83,29.83,10.0,Calm,Calm,-,N/A,,Mostly Cloudy,0,2013-02-13 22:53:00
2:53 PM,3.0,-0.0,87,29.82,10.0,Calm,Calm,-,N/A,,Mostly Cloudy,0,2013-02-13 23:53:00
3:53 PM,3.0,-0.9,84,29.80,10.0,North,3.5,-,N/A,,Mostly Cloudy,350,2013-02-14 00:53:00
4:53 PM,5.0,1.0,84,29.80,10.0,Calm,Calm,-,N/A,,Mostly Cloudy,0,2013-02-14 01:53:00
5:53 PM,-0.0,-2.9,88,29.81,10.0,Calm,Calm,-,N/A,,Scattered Clouds,0,2013-02-14 02:53:00
6:53 PM,-2.0,-6.0,83,29.80,10.0,Calm,Calm,-,N/A,,Scattered Clouds,0,2013-02-14 03:53:00
7:53 PM,-2.9,-6.0,87,29.80,10.0,Calm,Calm,-,N/A,,Scattered Clouds,0,2013-02-14 04:53:00
8:53 PM,-2.9,-8.0,79,29.80,10.0,Calm,Calm,-,N/A,,Partly Cloudy,0,2013-02-14 05:53:00
9:53 PM,-2.9,-8.0,79,29.80,10.0,Calm,Calm,-,N/A,,Clear,0,2013-02-14 06:53:00
10:53 PM,-6.0,-11.0,79,29.81,8.0,Calm,Calm,-,N/A,,Scattered Clouds,0,2013-02-14 07:53:00
11:53 PM,-2.9,-8.0,79,29.80,10.0,Calm,Calm,-,N/A,,Scattered Clouds,0,2013-02-14 08:53:00